STARLINK-31812, 59800

Orbit data source: Space-Track

STARLINK-31812, 59800 is a payload satellite owned by SpaceX/Seattle (US) in LEO that was launched on Sat, 18 May 2024 UTC via an FALCON 9 launch vehicle from the Air Force Eastern Test Range (AFETR). Payload-class satellites include a variety of spacecraft equipped with specific instruments for various scientific and technological missions. These include communications satellites like Starlink; space stations such as the ISS; scientific satellites like the Hubble; Earth observation satellites from companies like Planet Labs, Umbra, and HawkEye 360; GPS; miniature CubeSats for education and research; and military/defense satellites.

Loading next visibility...
Identifier
59800, 2024-093U
Orbit
LEO
Country
Flag of USUS
Related business
Manufacturer
SpaceX/Seattle
Mission
Operational Commercial Communications
Bus & Motor
STARLINK V2M, Unknown motor
Mass
730 kg wet, ~700 kg dry
Launch date (UTC)
2024-05-18 (2 years ago)
Launch vehicle
FALCON 9
Launch site
Air Force Eastern Test Range (AFETR)
Object type
Payload
Rocket body
Debris
Shape & HBR
Box + 2 Pan, 17.7 m
Radar Cross Section
33.884 m², Large (>1 m²)

Expand to show TLE details & history
Last TLE update: 11 hours ago

TLE from 11 hours ago
0 STARLINK-31812
1 59800U 24093U   26073.58883434  .00000109  00000-0  13497-4 0  9999
2 59800  43.0010 181.3125 0001157 280.8210  79.2511 15.27580893103511
Epoch: 2026-03-14T14:07Z
TLE epoch observation values (Epoch: 2026-03-14T14:07:55.286Z)
Latitude
-0.00007°
Longitude
157.12422°
Altitude
482.674 km
Speed
7.626 km/s
True Right ascension
12h 05m 14s
True Declination
0° 00' 00"
Sunlit
Object was in full shadow at epoch
Visualization orbit readout
Latitude
Unknown
Longitude
Unknown
Altitude
Unknown
Speed
Unknown
Apparent Right ascension
Unknown
Apparent Declination
Unknown
Sunlit
N/A
Visualization observer readout
Local Sidereal Time
05:28:25
Azimuth
Unknown
Elevation
Unknown
Doppler factor
Unknown
Orbital elements
Apogee altitude
485.785 km
Perigee altitude
484.197 km
Semi-major axis
6,863.128 km
Eccentricity
0.00012
Inclination
43.001°
RAAN
181.3125°
Arg. of periapsis
280.821°
True anomaly
79.26413°
Mean anomaly
79.2511°
Eccentric anomaly
79.25761°
Mean motion
3.81733 °/min
Orbital period
94.31 mins
BSTAR
0.000013497
Loading maneuver chart data...
Computing Atmospheric mass density...
Loading historical data...
Loading historical data...
Loading historical data...
Loading historical data...
Loading historical data...
Loading historical data...
Loading historical data...

Documentation

Showing up to 5 results
|